When you browse on this site, cookies collect data to enhance your experience and personalize the content and advertising you see.
Visit our Privacy Policy to learn more. By continuing to use the site, you agree to this use of cookies and data.
  • In Latvia
  • List of Countries
  • For 7 days
  • Water Temperature
  • Satellite Maps
  • Weather Map
  • Weather Widgets
  • user-avatar
    Login

    Hourly Weather Smoniowice

    Today, 21 February, Thursday

    Time Temperature Precipitation Wind Pressure Humidity
    00:00 +1°C° 0 mm 4 mps 745 mmHg 81%
    01:00 +1°C° 0 mm 4 mps 745 mmHg 83%
    02:00 +1°C° 0 mm 4 mps 745 mmHg 84%
    03:00 +1°C° 0 mm 4 mps 745 mmHg 85%
    04:00 0°C° 0 mm 4 mps 745 mmHg 85%
    05:00 +1°C° 0 mm 4 mps 745 mmHg 84%
    06:00 +1°C° 0 mm 4 mps 745 mmHg 82%
    07:00 +1°C° 0 mm 4 mps 745 mmHg 81%
    08:00 +2°C° 0 mm 5 mps 745 mmHg 77%
    09:00 +3°C° 0 mm 5 mps 745 mmHg 73%
    10:00 +5°C° 0 mm 5 mps 745 mmHg 69%
    11:00 +6°C° 0 mm 5 mps 745 mmHg 66%
    12:00 +7°C° 0 mm 6 mps 745 mmHg 62%
    13:00 +8°C° 0 mm 6 mps 744 mmHg 58%
    14:00 +7°C° 0.1 mm 5 mps 744 mmHg 61%
    15:00 +7°C° 0.1 mm 5 mps 744 mmHg 65%
    16:00 +6°C° 0.1 mm 4 mps 744 mmHg 68%
    17:00 +6°C° 0.5 mm 5 mps 743 mmHg 72%
    18:00 +6°C° 0.5 mm 5 mps 743 mmHg 75%
    19:00 +5°C° 0.5 mm 5 mps 743 mmHg 79%
    20:00 +4°C° 0.6 mm 6 mps 743 mmHg 80%
    21:00 +4°C° 0.6 mm 6 mps 743 mmHg 80%
    22:00 +4°C° 0.6 mm 6 mps 742 mmHg 81%
    23:00 +4°C° 0.4 mm 6 mps 742 mmHg 82%

    Tomorrow, 22 February, Friday

    Time Temperature Precipitation Wind Pressure Humidity
    00:00 +4°C° 0.4 mm 6 mps 742 mmHg 83%
    01:00 +4°C° 0.4 mm 6 mps 741 mmHg 85%
    02:00 +4°C° 0.9 mm 6 mps 741 mmHg 86%
    03:00 +4°C° 0.9 mm 6 mps 741 mmHg 88%
    04:00 +5°C° 0.9 mm 5 mps 741 mmHg 90%
    05:00 +3°C° 0.6 mm 6 mps 741 mmHg 89%
    06:00 +3°C° 0.6 mm 6 mps 742 mmHg 87%
    07:00 +2°C° 0.6 mm 7 mps 743 mmHg 86%
    08:00 0°C° 0.1 mm 7 mps 744 mmHg 81%
    09:00 -1°C° 0.1 mm 7 mps 745 mmHg 76%
    10:00 -2°C° 0.1 mm 7 mps 747 mmHg 71%
    11:00 -2°C° 0 mm 7 mps 748 mmHg 64%
    12:00 -2°C° 0 mm 6 mps 749 mmHg 57%
    13:00 -1°C° 0 mm 6 mps 750 mmHg 50%
    14:00 -2°C° 0 mm 6 mps 750 mmHg 48%
    15:00 -2°C° 0 mm 6 mps 751 mmHg 46%
    16:00 -3°C° 0 mm 6 mps 751 mmHg 44%
    17:00 -4°C° 0 mm 5 mps 752 mmHg 47%
    18:00 -5°C° 0 mm 5 mps 752 mmHg 49%
    19:00 -5°C° 0 mm 5 mps 753 mmHg 52%
    20:00 -6°C° 0 mm 5 mps 754 mmHg 51%
    21:00 -6°C° 0 mm 5 mps 754 mmHg 49%
    22:00 -5°C° 0 mm 4 mps 755 mmHg 48%
    23:00 -5°C° 0 mm 4 mps 755 mmHg 46%

    Day after tomorrow, 23 February, Saturday

    Time Temperature Precipitation Wind Pressure Humidity
    00:00 -7°C° 0 mm 4 mps 755 mmHg 44%
    01:00 -7°C° 0 mm 4 mps 755 mmHg 42%
    02:00 -6°C° 0 mm 3 mps 755 mmHg 41%
    03:00 -6°C° 0 mm 3 mps 755 mmHg 40%
    04:00 -6°C° 0 mm 3 mps 755 mmHg 40%
    05:00 -6°C° 0 mm 3 mps 756 mmHg 40%
    06:00 -7°C° 0 mm 3 mps 756 mmHg 41%
    07:00 -7°C° 0 mm 3 mps 757 mmHg 41%
    08:00 -6°C° 0 mm 3 mps 757 mmHg 38%
    09:00 -5°C° 0 mm 3 mps 757 mmHg 35%
    10:00 -5°C° 0 mm 3 mps 758 mmHg 32%
    11:00 -4°C° 0 mm 3 mps 757 mmHg 30%
    12:00 -2°C° 0 mm 3 mps 757 mmHg 28%
    13:00 -2°C° 0 mm 2 mps 757 mmHg 25%
    14:00 -2°C° 0 mm 2 mps 757 mmHg 26%
    15:00 -2°C° 0 mm 2 mps 756 mmHg 27%
    16:00 -2°C° 0 mm 2 mps 756 mmHg 27%
    17:00 -2°C° 0 mm 2 mps 756 mmHg 31%
    18:00 -3°C° 0 mm 2 mps 757 mmHg 34%
    19:00 -2°C° 0 mm 1 mps 757 mmHg 37%
    20:00 -2°C° 0 mm 1 mps 757 mmHg 38%
    21:00 -2°C° 0 mm 1 mps 757 mmHg 38%
    22:00 -3°C° 0 mm 0 mps 757 mmHg 39%
    23:00 -3°C° 0 mm 0 mps 756 mmHg 39%

    24 February, Sunday

    Time Temperature Precipitation Wind Pressure Humidity
    00:00 -3°C° 0 mm 0 mps 756 mmHg 39%
    01:00 -3°C° 0 mm 0 mps 756 mmHg 39%
    02:00 -2°C° 0 mm 1 mps 756 mmHg 38%
    03:00 -2°C° 0 mm 1 mps 756 mmHg 38%
    04:00 -2°C° 0 mm 1 mps 755 mmHg 38%
    05:00 -2°C° 0 mm 1 mps 755 mmHg 37%
    06:00 -2°C° 0 mm 1 mps 755 mmHg 35%
    07:00 -1°C° 0 mm 1 mps 755 mmHg 34%
    08:00 -2°C° 0 mm 2 mps 755 mmHg 31%
    09:00 -1°C° 0 mm 2 mps 754 mmHg 27%
    10:00 +1°C° 0 mm 2 mps 754 mmHg 23%
    11:00 +1°C° 0 mm 2 mps 754 mmHg 24%
    12:00 +1°C° 0 mm 3 mps 753 mmHg 25%
    13:00 +2°C° 0 mm 3 mps 753 mmHg 26%
    14:00 +2°C° 0 mm 3 mps 752 mmHg 29%
    15:00 +1°C° 0 mm 3 mps 752 mmHg 32%
    16:00 +1°C° 0 mm 3 mps 752 mmHg 35%
    17:00 +1°C° 0 mm 3 mps 751 mmHg 37%
    18:00 0°C° 0 mm 4 mps 751 mmHg 39%
    19:00 0°C° 0 mm 4 mps 751 mmHg 41%
    20:00 0°C° 0.4 mm 4 mps 751 mmHg 50%
    21:00 -1°C° 0.4 mm 4 mps 751 mmHg 59%
    22:00 -1°C° 0.4 mm 5 mps 751 mmHg 67%
    23:00 -1°C° 0.3 mm 5 mps 750 mmHg 71%

    25 February, Monday

    Time Temperature Precipitation Wind Pressure Humidity
    00:00 -1°C° 0.3 mm 5 mps 750 mmHg 75%
    01:00 -1°C° 0.3 mm 5 mps 750 mmHg 78%
    02:00 -1°C° 0.5 mm 5 mps 750 mmHg 82%
    03:00 -1°C° 0.5 mm 4 mps 749 mmHg 85%
    04:00 -1°C° 0.5 mm 4 mps 749 mmHg 88%
    05:00 -1°C° 0.1 mm 4 mps 749 mmHg 90%
    06:00 -1°C° 0.1 mm 5 mps 749 mmHg 91%
    07:00 -1°C° 0.1 mm 5 mps 750 mmHg 92%
    08:00 0°C° 0 mm 5 mps 750 mmHg 90%
    09:00 +1°C° 0 mm 5 mps 751 mmHg 88%
    10:00 +1°C° 0 mm 5 mps 751 mmHg 86%
    11:00 +2°C° 0 mm 5 mps 751 mmHg 81%
    12:00 +3°C° 0 mm 6 mps 751 mmHg 76%
    13:00 +3°C° 0 mm 6 mps 751 mmHg 71%
    14:00 +3°C° 0 mm 6 mps 751 mmHg 69%
    15:00 +3°C° 0 mm 5 mps 751 mmHg 68%
    16:00 +3°C° 0 mm 5 mps 751 mmHg 66%
    17:00 +3°C° 0 mm 4 mps 752 mmHg 70%
    18:00 +2°C° 0 mm 3 mps 752 mmHg 75%
    19:00 +1°C° 0 mm 3 mps 752 mmHg 79%
    20:00 +1°C° 0 mm 3 mps 752 mmHg 80%
    21:00 0°C° 0 mm 3 mps 752 mmHg 82%
    22:00 0°C° 0 mm 3 mps 753 mmHg 83%
    23:00 0°C° 0 mm 3 mps 752 mmHg 84%

    26 February, Tuesday

    Time Temperature Precipitation Wind Pressure Humidity
    00:00 0°C° 0 mm 3 mps 752 mmHg 84%
    01:00 -1°C° 0 mm 3 mps 751 mmHg 84%
    02:00 -2°C° 0 mm 4 mps 751 mmHg 83%
    03:00 -1°C° 0 mm 4 mps 750 mmHg 82%
    04:00 -1°C° 0 mm 5 mps 750 mmHg 81%
    05:00 -1°C° 0 mm 5 mps 749 mmHg 81%
    06:00 -2°C° 0 mm 6 mps 749 mmHg 80%
    07:00 -2°C° 0 mm 6 mps 748 mmHg 79%
    08:00 -1°C° 0 mm 6 mps 748 mmHg 75%
    09:00 +2°C° 0 mm 7 mps 748 mmHg 71%
    10:00 +3°C° 0 mm 7 mps 747 mmHg 67%
    11:00 +4°C° 0 mm 7 mps 746 mmHg 67%
    12:00 +4°C° 0 mm 7 mps 746 mmHg 66%
    13:00 +5°C° 0 mm 7 mps 745 mmHg 65%
    14:00 +5°C° 0 mm 7 mps 745 mmHg 66%
    15:00 +5°C° 0 mm 6 mps 744 mmHg 66%
    16:00 +5°C° 0 mm 6 mps 744 mmHg 66%
    17:00 +5°C° 0 mm 6 mps 744 mmHg 70%
    18:00 +5°C° 0 mm 5 mps 744 mmHg 73%
    19:00 +5°C° 0 mm 5 mps 744 mmHg 76%
    20:00 +4°C° 0 mm 6 mps 744 mmHg 77%
    21:00 +4°C° 0 mm 6 mps 743 mmHg 78%
    22:00 +4°C° 0 mm 6 mps 743 mmHg 79%
    23:00 +4°C° 0 mm 6 mps 743 mmHg 81%
    Show more